This is the latest recevied weather packets stored in our database for station/object NE1CU. If no packets are shown the sender has not sent any weather packets the latest 10 day(s).
| Time | Temp. | Humidity | Pressure | Rain* | Wind** | Luminosity | Snow |
|---|---|---|---|---|---|---|---|
| 1777931390 | 18.33° C | 48% | 1009.5 hPa | 0 mm | - | 80 W/m² | - |
| 1777931086 | 18.33° C | 47% | 1009.4 hPa | 0 mm | - | 85 W/m² | - |
| 1777930783 | 18.89° C | 47% | 1009.3 hPa | 0 mm | - | 115 W/m² | - |
| 1777930479 | 18.89° C | 47% | 1009.3 hPa | 0 mm | - | 298 W/m² | - |
| 1777930177 | 18.89° C | 47% | 1009.3 hPa | 0 mm | - | 301 W/m² | - |
| 1777929872 | 18.89° C | 46% | 1009.3 hPa | 0 mm | - | 309 W/m² | - |
| 1777929571 | 18.89° C | 46% | 1009.3 hPa | 0 mm | - | 285 W/m² | - |
| 1777929266 | 19.44° C | 45% | 1009.3 hPa | 0 mm | - | 325 W/m² | - |
| 1777928964 | 20° C | 44% | 1009.3 hPa | 0 mm | - | 335 W/m² | - |
| 1777928661 | 20° C | 43% | 1009 hPa | 0 mm | - | 390 W/m² | - |
| 1777928358 | 20° C | 43% | 1009.3 hPa | 0 mm | - | 408 W/m² | - |
| 1777928056 | 20.56° C | 43% | 1009.2 hPa | 0 mm | - | 432 W/m² | - |
| 1777927754 | 20.56° C | 43% | 1009.1 hPa | 0 mm | - | 398 W/m² | - |
| 1777927452 | 20.56° C | 43% | 1009.3 hPa | 0 mm | - | 466 W/m² | - |
| 1777927151 | 20° C | 42% | 1009.2 hPa | 0 mm | - | 343 W/m² | - |
| 1777926848 | 20° C | 43% | 1009.5 hPa | 0 mm | - | 495 W/m² | - |
| 1777926543 | 20.56° C | 41% | 1009.4 hPa | 0 mm | - | 516 W/m² | - |
| 1777926240 | 20.56° C | 42% | 1009.3 hPa | 0 mm | - | 528 W/m² | - |
| 1777925937 | 20.56° C | 41% | 1009.2 hPa | 0 mm | - | 544 W/m² | - |
| 1777925634 | 20.56° C | 43% | 1009.3 hPa | 0 mm | - | 559 W/m² | - |
| 1777925332 | 21.11° C | 42% | 1009.2 hPa | 0 mm | - | 586 W/m² | - |
| 1777925028 | 20.56° C | 42% | 1009.4 hPa | 0 mm | - | 599 W/m² | - |
| 1777924725 | 20.56° C | 42% | 1009.4 hPa | 0 mm | - | 609 W/m² | - |
| 1777924420 | 21.11° C | 40% | 1009.4 hPa | 0 mm | - | 633 W/m² | - |
| 1777924118 | 20.56° C | 42% | 1009.5 hPa | 0 mm | - | 650 W/m² | - |
* Rain latest hour (hover to see other rain measurements)
** Current wind speed in m/s (hover to see current wind gust speed)